NA4DL Weather Reports


time (UTC)temp
F
wind
direction
speed
knots
gust
knots
rain 1hr
in
rain 24hr
in
rain mn
in
humidity
%
barometer
mb
20260903035018 77 18 0.0 0.0 0.00 0.00 0.00 82 1016.2
20260903034040 78 1 0.0 0.0 0.00 0.00 0.00 82 1016.2
20260903033018 78 0.0 0.0 0.00 0.00 0.00 81 1016.3
20260903032038 78 102 0.0 0.0 0.00 0.00 0.00 81 1016.2
20260903031018 78 2 0.0 0.0 0.00 0.00 0.00 81 1016.3
20260903030019 79 83 0.0 0.9 0.00 0.00 0.00 80 1016.3
20260903025019 79 44 0.0 0.9 0.00 0.00 0.00 79 1016.3
20260903024019 79 115 0.0 0.9 0.00 0.00 0.00 79 1016.2
20260903023016 79 44 0.0 0.9 0.00 0.00 0.00 79 1016.2
20260903022057 80 49 0.0 0.9 0.00 0.00 0.00 79 1016.2
20260903021017 80 108 0.0 0.9 0.00 0.00 0.00 78 1016.2
20260903020020 80 35 0.0 1.7 0.00 0.00 0.00 78 1016.1
20260903015020 81 132 0.0 0.9 0.00 0.00 0.00 77 1016.0
20260903014017 81 36 0.0 0.9 0.00 0.00 0.00 77 1015.9
20260903013017 81 58 0.0 0.9 0.00 0.00 0.00 76 1015.9
20260903012017 82 47 0.0 0.9 0.00 0.00 0.00 76 1015.8
20260903011018 83 81 0.0 0.9 0.00 0.00 0.00 75 1015.8
20260903010018 83 101 0.0 0.9 0.00 0.00 0.00 74 1015.8
20260903005018 84 43 0.0 0.9 0.00 0.00 0.00 73 1015.7
20260903004018 85 70 0.0 0.9 0.00 0.00 0.00 70 1015.7
20260903003018 87 83 0.9 1.7 0.00 0.00 0.00 68 1015.8
20260903002019 88 61 0.0 0.9 0.00 0.00 0.00 66 1015.7
20260903001037 89 82 0.9 1.7 0.00 0.00 0.00 63 1015.7
20260903000016 92 66 0.9 0.9 0.00 0.00 0.00 58 1015.7
20260902235037 94 73 0.9 1.7 0.00 0.00 0.00 54 1015.8
20260902234039 95 76 0.9 2.6 0.00 0.00 0.00 51 1015.8
20260902233020 94 69 0.9 3.5 0.00 0.00 0.00 51 1015.8
20260902232020 94 57 0.9 2.6 0.00 0.00 0.00 51 1015.8
20260902231037 95 71 0.9 1.7 0.00 0.00 0.00 48 1015.8
20260902230017 97 80 1.7 1.7 0.00 0.00 0.00 44 1015.8
20260902225018 99 53 0.9 3.5 0.00 0.00 0.00 42 1015.8
20260902224017 101 72 1.7 2.6 0.00 0.00 0.00 39 1015.8
20260902223018 103 77 1.7 3.5 0.00 0.00 0.00 38 1015.8
20260902222018 103 61 1.7 4.3 0.00 0.00 0.00 38 1015.9
20260902221018 103 116 0.9 4.3 0.00 0.00 0.00 37 1015.9
20260902220018 101 61 1.7 3.5 0.00 0.00 0.00 39 1015.9
20260902215018 100 74 2.6 4.3 0.00 0.00 0.00 40 1015.9
20260902214018 102 62 1.7 5.2 0.00 0.00 0.00 39 1015.9
20260902213019 102 52 1.7 5.2 0.00 0.00 0.00 39 1016.0
20260902212019 102 58 1.7 3.5 0.00 0.00 0.00 38 1016.1
20260902211016 101 65 1.7 5.2 0.00 0.00 0.00 39 1016.1
20260902210019 100 69 1.7 4.3 0.00 0.00 0.00 40 1016.2
20260902205019 101 76 1.7 3.5 0.00 0.00 0.00 39 1016.3
20260902204019 102 59 1.7 3.5 0.00 0.00 0.00 38 1016.3
20260902203019 101 78 1.7 4.3 0.00 0.00 0.00 39 1016.4
20260902202017 101 74 1.7 4.3 0.00 0.00 0.00 39 1016.5
20260902201017 100 58 1.7 4.3 0.00 0.00 0.00 42 1016.7
20260902200017 99 59 1.7 4.3 0.00 0.00 0.00 42 1016.9
20260902195017 99 56 1.7 4.3 0.00 0.00 0.00 41 1016.9
20260902194020 100 16 1.7 4.3 0.00 0.00 0.00 40 1017.1
20260902193020 100 67 1.7 5.2 0.00 0.00 0.00 41 1017.2
20260902192017 99 86 1.7 5.2 0.00 0.00 0.00 41 1017.3
20260902191018 99 87 1.7 4.3 0.00 0.00 0.00 41 1017.4
20260902190018 98 85 1.7 4.3 0.00 0.00 0.00 41 1017.5
20260902185018 97 72 1.7 2.6 0.00 0.00 0.00 43 1017.6
20260902184038 96 89 1.7 5.2 0.00 0.00 0.00 44 1017.7
20260902183018 96 64 1.7 3.5 0.00 0.00 0.00 45 1017.7
20260902182018 96 276 1.7 3.5 0.00 0.00 0.00 43 1017.7
20260902181019 96 107 2.6 5.2 0.00 0.00 0.00 44 1017.8
20260902180019 96 98 1.7 5.2 0.00 0.00 0.00 44 1018.0
20260902175019 95 80 1.7 4.3 0.00 0.00 0.00 46 1018.1
20260902174039 94 141 1.7 3.5 0.00 0.00 0.00 45 1018.2
20260902173019 95 307 2.6 5.2 0.00 0.00 0.00 45 1018.3
20260902172016 94 104 1.7 3.5 0.00 0.00 0.00 46 1018.4
20260902171016 94 97 2.6 4.3 0.00 0.00 0.00 46 1018.6
20260902170019 94 85 1.7 4.3 0.00 0.00 0.00 45 1018.8
20260902165020 94 105 2.6 4.3 0.00 0.00 0.00 45 1018.9
20260902164020 93 95 1.7 3.5 0.00 0.00 0.00 47 1019.0
20260902163029 92 74 0.9 1.7 0.00 0.00 0.00 47 1019.1
20260902162029 93 277 1.7 2.6 0.00 0.00 0.00 46 1019.2
20260902161029 92 120 0.9 2.6 0.00 0.00 0.00 48 1019.3
20260902160029 92 190 1.7 2.6 0.00 0.00 0.00 47 1019.3
20260902155030 91 210 1.7 3.5 0.00 0.00 0.00 48 1019.4
20260902154030 91 113 1.7 3.5 0.00 0.00 0.00 49 1019.3
20260902153030 90 128 1.7 2.6 0.00 0.00 0.00 50 1019.4
20260902152030 89 237 1.7 1.7 0.00 0.00 0.00 51 1019.4
20260902151050 89 328 1.7 2.6 0.00 0.00 0.00 53 1019.3
20260902150030 88 233 0.9 2.6 0.00 0.00 0.00 56 1019.3
20260902145030 87 151 0.9 1.7 0.00 0.00 0.00 57 1019.3
20260902144031 86 265 0.9 1.7 0.00 0.00 0.00 58 1019.3
20260902143031 85 256 0.9 1.7 0.00 0.00 0.00 62 1019.3
20260902142031 84 305 0.9 1.7 0.00 0.00 0.00 64 1019.3
20260902141031 83 215 0.0 1.7 0.00 0.00 0.00 65 1019.2
20260902140051 81 286 0.9 2.6 0.00 0.00 0.00 69 1019.2
20260902135051 80 35 0.0 0.9 0.00 0.00 0.00 74 1019.2
20260902134017 78 14 0.0 0.9 0.00 0.00 0.00 79 1019.1
20260902133031 77 48 0.0 0.9 0.00 0.00 0.00 82 1019.2
20260902132017 75 25 0.0 0.9 0.00 0.00 0.00 85 1019.1
20260902131017 74 358 0.0 0.9 0.00 0.00 0.00 88 1019.1
20260902130017 73 313 0.0 0.9 0.00 0.00 0.00 89 1019.1
20260902125017 73 322 0.0 0.9 0.00 0.00 0.00 89 1019.1
20260902124038 72 327 0.0 0.9 0.00 0.00 0.00 90 1019.1
20260902123018 72 2 0.0 0.9 0.00 0.00 0.00 90 1019.0
20260902122018 71 335 0.0 0.0 0.00 0.00 0.00 90 1018.9
20260902121018 71 43 0.0 0.9 0.00 0.00 0.00 90 1018.8
20260902120018 71 55 0.0 0.9 0.00 0.00 0.00 90 1018.7
20260902115018 70 123 0.0 0.9 0.00 0.00 0.00 90 1018.5
20260902114018 70 82 0.0 0.9 0.00 0.00 0.00 90 1018.5
20260902113018 70 322 0.0 0.9 0.00 0.00 0.00 90 1018.4
20260902112019 70 304 0.0 0.9 0.00 0.00 0.00 90 1018.3
20260902111019 70 59 0.0 0.9 0.00 0.00 0.00 90 1018.3
20260902110019 71 28 0.9 1.7 0.00 0.00 0.00 90 1018.2
20260902105019 71 102 0.0 0.9 0.00 0.00 0.00 90 1018.1
20260902104039 71 100 0.0 0.9 0.00 0.00 0.00 90 1018.1
20260902103019 71 105 0.0 0.9 0.00 0.00 0.00 89 1018.0
20260902102040 71 46 0.0 0.9 0.00 0.00 0.00 89 1017.9
20260902101020 71 79 0.0 0.9 0.00 0.00 0.00 89 1017.8
20260902100021 71 32 0.0 0.0 0.00 0.00 0.00 89 1017.7
20260902095020 71 56 0.0 0.9 0.00 0.00 0.00 89 1017.6
20260902094020 71 60 0.0 0.9 0.00 0.00 0.00 89 1017.5
20260902093021 71 93 0.0 0.9 0.00 0.00 0.00 89 1017.4
20260902092021 71 313 0.0 0.9 0.00 0.00 0.00 89 1017.4
20260902091021 71 326 0.0 0.9 0.00 0.00 0.00 89 1017.3
20260902090021 71 332 0.0 0.0 0.00 0.00 0.00 88 1017.2
20260902085021 72 92 0.0 0.9 0.00 0.00 0.00 88 1017.2
20260902084021 72 18 0.0 0.9 0.00 0.00 0.00 88 1017.1
20260902083021 72 114 0.0 0.9 0.00 0.00 0.00 88 1017.1
20260902082021 72 360 0.0 0.9 0.00 0.00 0.00 88 1017.0
20260902081022 72 107 0.0 0.0 0.00 0.00 0.00 88 1017.0
20260902080022 72 114 0.0 0.9 0.00 0.00 0.00 88 1016.9
20260902075022 72 111 0.0 0.9 0.00 0.00 0.00 88 1016.9
20260902074022 73 0.0 0.0 0.00 0.00 0.00 87 1016.9
20260902073022 73 352 0.0 0.0 0.00 0.00 0.00 87 1017.0
20260902072023 73 40 0.0 0.9 0.00 0.00 0.00 87 1017.0
20260902071023 73 85 0.0 0.9 0.00 0.00 0.00 87 1017.0
20260902070023 73 225 0.0 0.9 0.00 0.00 0.00 87 1017.0
20260902065023 73 107 0.0 0.0 0.00 0.00 0.00 87 1016.9
20260902064023 74 32 0.0 0.0 0.00 0.00 0.00 86 1017.0
20260902063024 74 338 0.0 0.0 0.00 0.00 0.00 86 1017.0
20260902062024 74 190 0.0 0.9 0.00 0.00 0.00 86 1017.0
20260902061043 74 98 0.0 0.9 0.00 0.00 0.00 86 1017.1
20260902060024 74 37 0.0 0.9 0.00 0.00 0.00 86 1017.1
20260902055024 74 26 0.0 0.9 0.00 0.00 0.00 86 1017.1
20260902054024 74 0.0 0.0 0.00 0.00 0.00 85 1017.1
20260902053024 75 24 0.0 0.9 0.00 0.00 0.00 85 1017.1
20260902052045 75 99 0.0 0.9 0.00 0.00 0.00 85 1017.0
20260902051024 75 352 0.0 0.0 0.00 0.00 0.00 85 1017.0
20260902050045 75 0.0 0.0 0.00 0.00 0.00 84 1017.1
20260902045025 75 1 0.0 0.0 0.00 0.00 0.00 84 1017.1
20260902044025 75 86 0.0 0.9 0.00 0.00 0.00 83 1017.1
20260902043025 75 95 0.0 0.9 0.00 0.00 0.00 83 1017.2
20260902042025 76 113 0.0 0.0 0.00 0.00 0.00 82 1017.2
20260902041025 76 314 0.0 0.9 0.00 0.00 0.00 82 1017.3
20260902040026 76 48 0.0 0.9 0.00 0.00 0.00 82 1017.2